User: anonymous   Login
Location: Unspecified
(0.0000°N, 0.0000°E)
Time: 07:00:04
(UTC+00:00)
Language:

RISAT 1 - Orbit

View from above orbital plane
View from above orbital plane
View from above satellite
View from above satellite

Ground track
Ground track

The orbit data is extracted from the following two-line orbital elements,

1 38248U 12017A   16240.72907917 -.00000123  00000-0 -38479-5 0  9995
2 38248  97.5626 246.3364 0004459 348.7752  98.4104 15.08953956238985
Epoch (UTC): 27 August 2016 17:29:52
Eccentricity: 0.0004459
inclination: 97.5626°
perigee height: 536 km
apogee height: 542 km
right ascension of ascending node: 246.3364°
argument of perigee: 348.7752°
revolutions per day: 15.08953956
mean anomaly at epoch: 98.4104°
orbit number at epoch: 23898

The dashed part of the orbit path shows where the satellite is in the earth's shadow,  

DLR